RH
43 45 45 44 44 45 45 45 43 41 41 40 40 40 40 40 42 42 41 39 38 37 36 34 35 37 38 37 37 40 40 37 35 35 35 36 42 53 62 67 70 68 54 40 37 36 36 38 40 42 45 47 48 50 52 56 63 67 64 61 67 72 65 52 46 45 40 32 28 30 32 32 32 31 30 31 32 32 30 29 32 37 39 41 43 42 41
44 47 47 44 44 43 43 43 41 40 40 40 40 40 39 40 41 41 41 41 39 37 36 36 37 38 37 36 36 36 34 32 33 38 45 46 50 62 68 64 65 66 59 50 43 38 37 37 37 38 39 42 46 48 51 51 52 61 69 69 70 72 67 56 47 47 47 39 33 34 36 37 38 35 32 33 36 37 36 35 37 39 38 38 40 41 44
50 47 44 41 42 42 41 40 39 37 37 37 38 38 39 40 41 40 40 39 39 37 37 36 36 36 34 32 33 34 31 33 39 46 54 57 57 60 59 57 64 73 75 69 50 35 34 36 36 38 35 35 41 46 50 49 46 50 59 69 73 72 72 68 57 52 53 47 41 42 44 43 43 41 38 36 38 42 43 42 42 42 40 39 39 41 44
54 49 47 44 40 37 37 37 36 35 35 35 35 35 36 36 36 38 39 38 37 36 35 35 34 33 31 27 29 32 31 35 45 50 54 60 61 55 49 52 64 71 78 80 58 33 31 35 34 37 36 30 31 39 48 50 47 46 50 62 73 78 84 89 80 68 62 56 51 51 53 51 47 44 42 39 41 46 47 46 46 45 44 44 43 43 45
55 51 49 45 39 37 37 36 35 35 34 34 34 34 34 33 32 34 36 35 35 34 32 32 31 30 30 28 27 30 33 38 45 48 53 59 60 55 51 54 60 56 54 62 54 35 30 32 30 32 33 27 22 27 40 49 49 47 49 58 69 80 89 93 90 85 77 67 60 57 58 59 54 48 45 42 40 45 48 49 50 50 49 48 47 46 48
60 54 46 43 46 46 42 37 35 35 34 33 32 30 29 30 29 29 30 31 32 32 30 30 31 29 29 27 25 31 38 38 38 46 57 60 56 53 51 52 54 49 41 42 45 37 31 31 31 31 29 23 17 17 27 43 51 50 51 53 57 67 78 79 81 88 86 76 69 66 62 61 58 53 49 44 37 39 47 52 53 52 50 47 45 46 48
62 54 46 49 54 48 41 39 37 35 35 33 31 28 26 29 30 29 29 30 30 30 28 28 28 27 27 27 28 35 41 39 38 45 52 51 49 49 49 49 50 50 46 45 43 37 30 28 31 32 27 22 18 15 19 36 50 54 55 55 52 55 64 68 69 75 77 72 69 69 67 62 60 57 53 48 41 37 44 52 53 50 48 46 46 48 47
67 58 51 53 53 43 38 39 38 36 37 35 34 32 29 29 31 31 32 31 28 29 29 28 28 28 30 34 35 36 40 43 43 44 44 42 41 44 47 49 49 51 53 49 40 30 25 27 31 32 28 22 19 17 17 26 43 55 58 59 56 53 55 63 67 67 68 68 65 67 72 69 64 59 53 50 47 43 45 51 50 48 50 51 50 47 44
73 66 57 51 48 43 39 38 36 36 36 35 35 37 36 33 34 35 36 37 36 35 33 32 32 32 31 33 37 40 47 52 50 45 44 46 48 52 55 53 52 55 53 42 28 20 18 21 23 25 25 24 20 18 18 21 33 50 58 59 59 56 53 60 68 67 66 68 67 70 77 76 70 60 50 48 48 45 48 50 46 47 53 54 50 48 46
78 77 67 54 50 48 42 38 36 35 36 37 39 42 41 35 36 40 41 40 39 37 35 32 31 36 41 43 45 47 49 53 53 51 56 63 64 60 56 53 53 53 43 27 18 15 15 15 13 14 22 27 22 16 17 20 28 45 59 62 60 57 54 57 65 69 72 72 69 70 76 83 85 74 56 49 48 45 48 51 48 49 54 52 51 52 50
84 81 69 58 56 52 43 40 38 36 35 37 42 48 47 41 39 42 41 40 38 37 39 34 31 44 58 57 53 56 58 61 63 60 60 63 61 54 53 56 56 46 29 18 16 15 14 13 11 10 15 22 24 20 17 19 24 35 51 62 64 60 56 55 60 68 78 81 75 71 73 80 87 82 65 57 54 49 50 53 51 50 50 49 49 51 48
80 74 69 65 59 51 45 42 40 37 36 40 45 49 50 49 47 41 39 41 39 36 37 35 36 54 69 63 55 61 70 74 72 67 65 63 58 56 56 53 46 34 22 18 17 16 15 14 11 10 12 18 25 25 19 18 20 25 35 50 64 66 59 55 58 62 70 78 79 78 79 79 81 81 75 66 59 51 49 50 49 47 47 48 49 49 49
67 67 70 70 59 49 46 45 43 41 40 44 49 49 50 57 59 52 47 44 40 39 41 44 49 60 67 64 58 59 65 70 68 68 72 70 62 57 48 35 28 24 20 19 19 17 17 16 13 12 13 18 24 25 22 20 20 22 27 37 53 65 62 57 58 59 62 69 73 79 84 81 79 79 75 69 64 57 50 49 49 47 47 49 51 51 53
60 60 63 66 59 51 49 47 46 43 37 42 52 55 55 58 59 58 58 53 48 45 44 47 56 62 60 58 54 51 54 59 60 62 66 61 53 48 41 30 26 23 19 19 22 20 17 16 15 16 16 16 18 20 21 21 22 25 29 31 39 54 62 62 59 58 59 64 70 79 84 80 78 78 70 63 65 63 54 49 49 50 51 51 53 56 58
58 60 61 62 57 52 48 45 44 43 40 43 51 55 57 60 62 63 62 59 56 55 51 49 51 50 47 46 48 54 60 60 59 61 64 58 48 43 42 37 31 26 22 20 21 21 19 16 16 19 20 17 16 16 16 19 23 26 29 32 35 41 54 66 66 60 59 61 66 77 82 76 76 80 72 63 63 62 57 53 50 51 56 57 57 60 62
54 59 59 55 52 52 51 47 46 49 52 52 52 52 54 60 63 60 56 57 61 63 65 63 54 43 39 39 43 53 58 53 50 53 58 58 50 40 36 34 31 27 25 22 20 19 19 17 14 16 18 18 16 14 13 16 22 25 29 37 41 39 44 61 71 68 64 60 60 68 77 78 79 84 80 71 65 62 61 62 59 57 59 62 62 63 63
50 52 52 48 48 51 53 50 50 54 54 52 51 51 51 51 53 52 54 62 68 66 67 74 74 67 60 53 52 55 52 44 45 50 55 56 48 34 27 30 33 32 26 22 19 15 13 14 14 13 17 21 19 15 11 12 18 26 32 40 48 48 43 50 66 75 71 64 59 61 71 83 88 86 81 75 69 65 65 66 65 63 63 65 66 66 66
51 51 52 51 49 49 49 47 47 48 47 45 45 47 49 49 50 51 53 59 64 60 59 68 74 68 59 55 58 63 61 56 57 61 60 53 44 37 31 28 32 35 29 23 20 15 11 12 14 14 17 22 24 20 16 14 18 28 37 42 51 61 57 48 56 74 76 67 63 62 65 79 87 81 76 74 70 67 68 67 67 67 65 66 69 70 68
49 48 49 47 44 44 44 43 42 41 42 42 44 46 47 47 46 46 46 47 50 50 50 53 55 50 47 50 53 56 59 59 54 53 54 51 47 46 43 40 39 36 29 25 24 18 12 13 17 19 18 22 27 27 22 20 24 32 39 43 49 65 72 60 54 69 77 69 65 64 62 69 79 78 73 72 68 65 69 72 73 73 70 67 69 70 68
48 47 46 44 44 45 43 41 43 44 44 44 44 43 44 47 48 46 45 45 46 47 48 49 49 46 45 50 53 55 59 62 55 51 56 61 57 48 46 52 52 40 26 22 21 17 13 15 20 23 21 22 30 34 31 28 29 32 38 44 47 59 75 72 58 63 73 68 63 65 61 60 70 77 74 70 68 67 68 69 71 74 74 70 69 72 74
50 48 46 45 46 47 43 38 39 42 43 44 45 43 43 44 42 40 45 51 52 50 51 51 50 46 43 47 54 58 58 58 56 56 63 69 62 48 42 46 47 41 34 24 16 16 16 16 20 27 28 26 29 35 37 34 33 34 36 40 42 51 68 76 66 63 70 66 60 64 64 57 60 71 73 70 70 70 70 70 68 69 71 67 64 71 78
53 52 51 51 50 49 45 43 43 45 47 49 51 48 46 45 42 41 46 50 49 45 45 47 48 46 44 49 58 62 58 53 52 53 57 61 58 51 48 46 40 42 42 26 13 19 24 17 16 24 26 25 30 40 45 41 37 39 40 40 41 44 56 71 73 69 70 67 61 66 69 61 56 62 69 71 71 69 70 72 71 70 70 68 66 71 79
52 49 48 50 51 49 49 50 53 55 57 57 53 51 52 51 47 45 46 47 44 38 34 39 46 49 49 51 54 56 54 53 53 53 54 59 61 58 56 48 37 43 50 32 12 19 27 19 12 16 19 24 35 48 54 49 43 44 47 47 44 40 47 63 75 75 72 66 62 65 68 64 60 60 64 70 73 72 69 69 69 70 72 72 71 72 77
53 48 47 52 57 59 60 62 61 60 60 59 55 54 57 54 49 49 52 50 46 44 44 48 53 54 52 52 53 55 57 57 57 52 44 43 47 46 43 32 20 27 41 31 13 18 27 20 12 14 18 25 39 52 59 57 51 49 50 50 47 45 50 61 69 73 74 69 64 62 62 63 66 66 62 66 73 76 74 72 70 70 72 74 73 72 76
62 59 60 64 66 65 66 67 64 59 56 57 58 57 55 52 49 51 49 41 38 45 54 58 57 55 56 57 58 59 62 62 60 49 30 19 21 22 20 14 12 22 35 33 26 32 37 30 22 21 21 27 42 55 60 60 57 52 49 51 52 52 58 66 67 65 66 67 68 66 60 58 63 65 62 63 67 71 74 75 74 75 75 73 72 74 80
68 66 66 67 64 60 59 59 57 54 51 52 57 58 54 53 53 52 51 50 52 56 59 59 60 62 64 63 62 62 63 63 61 53 35 22 20 19 14 13 21 35 42 35 29 32 37 37 34 29 24 30 45 55 58 60 60 53 49 54 55 48 50 64 72 69 66 70 74 74 70 65 65 68 70 71 71 72 74 75 75 75 74 72 74 80 86
66 68 68 67 63 60 59 56 54 56 56 56 60 62 58 58 60 59 58 60 62 64 66 66 66 69 71 70 69 72 71 64 59 53 41 28 22 22 22 23 29 38 42 40 40 42 45 44 38 29 26 35 48 57 61 63 61 55 54 61 63 54 47 55 67 72 76 80 80 78 78 79 78 77 80 82 81 79 76 75 75 75 74 77 82 86 89
65 67 68 70 68 67 67 65 63 66 68 66 67 68 66 65 65 63 62 63 63 65 67 63 56 59 68 70 70 74 73 62 52 46 41 34 32 36 41 43 46 52 59 65 66 61 54 45 35 29 33 44 55 64 68 67 65 64 64 64 62 58 54 56 60 66 74 79 80 83 87 89 87 86 85 84 83 82 80 79 79 78 78 82 88 90 91
71 72 73 75 75 74 74 73 73 75 76 76 76 74 73 73 73 68 65 68 70 70 70 67 61 61 67 71 72 76 76 70 63 55 45 40 44 51 55 56 61 70 78 78 71 59 47 38 34 37 47 57 66 73 74 71 68 69 69 65 58 55 58 60 58 60 67 74 79 85 88 87 88 91 91 89 89 89 88 86 86 84 84 86 89 89 89
74 75 76 76 76 77 76 76 77 78 78 80 83 82 79 80 81 79 76 78 79 77 78 77 72 70 71 72 71 70 73 78 78 70 58 53 56 63 65 65 71 79 80 72 60 48 39 36 41 52 63 71 75 77 77 75 72 71 71 69 66 65 70 69 62 61 72 82 85 85 84 84 87 93 96 95 95 94 92 90 90 90 90 91 90 91 92
72 73 74 73 73 74 75 77 80 81 81 84 88 88 84 83 86 88 87 85 84 84 84 81 75 72 74 75 71 69 74 79 74 67 66 67 67 66 66 69 75 78 71 57 47 43 44 48 57 68 77 82 83 83 82 80 81 82 81 77 73 75 83 87 82 80 87 94 93 91 90 91 93 96 97 96 97 97 97 96 95 96 97 96 93 92 93
77 73 71 70 71 71 74 77 80 79 79 83 86 84 80 81 85 87 87 85 85 86 84 81 79 78 78 77 72 70 71 71 68 70 77 74 65 62 69 74 76 72 61 52 50 54 60 66 73 80 87 90 91 92 90 86 88 93 94 90 85 85 91 96 95 95 97 98 96 96 98 99 98 98 96 96 98 99 99 99 99 100 100 99 96 94 95
91 83 76 75 76 76 76 78 80 80 76 74 77 77 75 75 78 78 77 81 87 88 81 77 81 84 79 70 66 67 71 72 71 76 83 76 67 70 78 77 68 61 59 61 67 73 76 80 84 90 96 97 96 97 97 95 94 95 96 96 98 98 98 98 98 99 100 100 98 98 99 99 99 99 99 99 101 101 99 99 100 99 98 97 96 95 94
94 91 88 86 85 85 82 79 81 85 82 76 76 79 76 74 75 76 76 77 82 84 83 79 79 80 76 67 62 68 78 79 71 70 77 79 75 75 75 69 66 69 76 83 88 91 91 90 92 95 99 100 98 97 99 99 99 97 96 97 99 100 99 99 100 100 99 98 99 100 100 98 97 98 99 99 98 96 94 94 94 94 94 93 92 90 89
93 96 93 86 82 84 84 80 81 86 84 79 81 86 84 80 80 83 85 84 83 83 84 80 77 77 79 77 74 76 82 82 75 72 77 79 75 72 72 75 82 89 93 94 96 97 97 96 97 99 99 99 98 98 99 99 99 99 99 99 99 99 99 100 100 100 100 98 98 99 97 94 93 92 93 93 92 89 88 89 91 91 90 90 91 93 92
90 94 88 78 71 71 74 74 77 82 80 74 75 81 85 86 88 89 89 89 86 81 75 74 77 81 81 79 79 81 82 79 73 71 73 75 77 81 86 91 95 97 98 99 100 100 99 99 100 99 99 99 99 99 100 99 99 99 100 100 99 99 99 99 99 100 100 99 100 99 96 95 94 93 93 92 90 89 90 91 91 91 89 86 86 87 84
74 74 71 69 68 71 72 71 73 79 79 75 74 78 84 89 92 90 87 86 85 81 76 76 83 86 81 77 79 83 82 77 73 74 79 86 91 93 94 95 97 99 99 99 99 99 99 100 100 99 100 100 100 99 99 100 100 100 100 101 101 100 100 100 100 100 99 99 99 99 97 96 95 95 95 96 96 97 98 97 96 96 93 87 82 79 74
71 72 77 81 85 88 88 86 86 87 85 82 81 86 92 94 91 86 83 81 79 77 78 82 86 87 84 82 81 79 76 74 77 83 90 96 99 99 97 97 98 100 100 99 100 100 100 100 100 99 99 99 100 100 100 99 97 96 97 98 98 97 97 97 96 96 96 96 95 93 92 92 92 92 91 91 91 91 91 93 96 96 89 80 76 73 68
85 88 93 97 98 98 96 97 98 97 94 93 93 95 96 91 82 77 78 76 72 74 79 81 78 76 76 76 73 71 72 78 87 95 99 100 100 100 99 98 98 99 99 99 99 99 99 99 100 99 98 98 99 100 98 97 96 96 97 98 97 95 95 95 93 90 88 87 86 84 83 83 83 80 76 74 73 73 73 78 83 83 77 75 79 80 78
95 96 98 100 100 99 96 96 97 97 95 95 95 92 87 79 73 73 74 72 73 79 83 80 74 72 74 75 74 75 81 89 96 100 100 99 99 100 100 100 100 100 100 99 99 99 100 101 101 98 95 95 96 96 95 95 95 93 91 91 90 87 86 86 86 84 81 79 78 75 73 75 76 75 70 68 68 67 65 63 65 71 78 85 90 91 89
98 99 99 97 96 96 94 92 94 95 92 87 83 80 76 73 73 76 76 78 83 85 81 76 76 79 82 85 88 92 96 100 101 100 99 99 101 101 99 99 99 99 98 99 100 99 99 100 100 99 97 96 96 96 96 95 94 91 90 89 87 82 79 76 73 71 73 77 79 80 82 85 84 80 77 78 78 76 74 72 69 73 84 90 87 87 90
98 97 94 92 92 90 86 83 83 81 77 76 78 79 76 75 78 81 83 86 89 85 77 76 83 88 91 96 99 99 99 99 99 99 99 100 99 99 98 99 99 100 99 99 98 98 97 96 95 95 96 96 97 97 97 97 97 96 97 97 96 93 92 91 86 83 85 90 92 93 96 99 95 89 90 95 93 89 90 91 83 77 83 88 86 84 86
96 94 91 90 91 88 84 83 82 77 75 81 88 90 86 83 85 87 86 83 81 79 80 87 93 96 99 101 101 100 101 102 101 99 98 95 93 92 91 90 88 87 87 86 86 86 87 86 86 87 91 94 96 95 94 94 95 93 93 95 97 97 97 97 95 94 97 99 98 96 97 97 96 94 95 96 91 88 90 88 77 70 76 84 82 76 71
96 92 89 89 90 89 89 91 90 86 83 85 87 86 83 81 82 81 79 77 80 86 93 98 99 99 99 100 98 97 97 97 94 90 87 84 81 78 77 79 81 81 79 77 75 71 68 68 69 70 73 81 89 92 90 89 90 90 90 91 93 94 95 94 92 91 91 92 93 95 95 91 90 91 87 80 78 84 88 83 74 70 72 72 69 69 68
93 89 88 88 87 87 90 91 88 85 84 82 80 79 81 84 86 86 87 90 95 98 100 100 100 100 99 97 94 93 91 88 85 81 75 70 69 71 75 82 88 89 89 87 83 76 70 68 67 62 57 58 66 73 74 72 72 74 77 81 81 78 77 78 80 84 86 86 86 89 89 86 86 87 82 72 71 78 83 82 79 77 71 64 64 70 71
88 86 86 85 83 84 87 88 88 90 92 93 93 94 95 97 98 98 98 99 100 100 99 99 98 98 97 94 91 89 88 89 92 91 84 74 71 78 88 94 96 97 98 97 93 88 84 81 76 67 56 49 48 49 49 48 47 47 49 53 53 48 45 47 51 60 69 72 71 73 79 85 89 92 91 87 84 80 75 71 68 62 55 52 54 56 53
92 90 88 89 90 91 92 94 97 100 99 97 96 96 97 98 98 99 99 98 97 96 97 95 89 85 88 90 86 79 73 71 73 80 83 78 73 76 83 85 83 82 81 76 71 66 63 59 56 52 47 42 39 36 34 35 35 33 32 33 32 30 29 29 30 34 41 44 43 44 52 61 68 71 73 74 73 66 58 54 51 46 43 43 43 39 33
98 95 94 96 98 97 98 99 100 99 97 94 92 92 94 96 98 97 96 95 92 91 91 89 82 77 81 86 83 77 71 63 55 53 57 58 56 55 54 52 50 50 49 45 42 40 39 38 38 38 37 37 37 35 34 35 36 35 34 35 35 33 32 32 32 33 34 35 33 32 33 36 39 41 43 43 44 43 42 42 41 39 37 36 33 29 26
100 99 100 100 99 99 101 100 97 96 97 96 93 91 92 94 96 93 88 85 83 83 83 82 77 71 70 69 65 60 57 53 46 42 42 44 44 42 40 39 39 39 38 37 37 37 36 36 36 36 35 36 37 37 37 39 41 43 43 43 43 42 40 39 38 39 38 37 36 36 35 34 34 34 34 33 32 31 30 30 30 30 29 28 27 27 27
93 94 94 93 93 95 96 94 93 96 99 99 97 93 89 86 85 83 80 78 79 79 78 76 71 63 58 55 52 47 44 43 42 40 40 41 40 38 37 37 37 36 34 34 34 33 34 34 35 35 36 37 38 38 39 40 41 43 45 45 43 42 41 39 37 37 36 34 33 33 32 30 29 28 27 28 29 27 24 23 24 26 28 30 31 32 32
89 87 85 84 83 83 82 82 85 88 89 89 88 87 86 87 90 90 87 80 72 64 59 56 52 47 44 44 44 42 40 39 38 37 35 34 33 31 29 28 26 24 24 23 21 21 22 23 23 24 26 28 30 33 36 38 38 40 42 42 42 41 40 38 36 34 33 31 30 30 29 29 29 28 28 29 30 29 27 25 24 24 26 30 34 35 35
92 90 87 85 83 79 77 78 79 80 81 83 84 83 83 85 87 86 81 71 59 50 47 45 42 40 39 39 37 36 35 33 31 28 26 23 20 18 16 15 14 13 12 12 11 11 12 12 13 14 16 18 20 22 25 28 30 32 34 36 39 40 41 40 41 40 38 36 36 34 34 34 33 32 31 31 31 30 30 29 28 27 27 28 30 33 36
Wind_Speed
27 24 25 25 23 23 22 24 25 25 23 22 21 22 23 22 21 23 26 25 24 27 29 29 28 26 27 27 27 28 28 28 27 24 23 22 18 15 13 12 18 27 35 38 38 37 34 28 23 21 22 22 18 15 17 21 24 24 26 31 35 36 34 32 32 29 26 25 25 25 25 26 27 28 28 27 26 25 24 22 22 21 20 19 18 18 17
27 25 23 22 22 24 25 26 28 28 27 24 24 26 27 27 27 29 33 34 33 33 34 34 32 29 29 29 29 30 29 27 25 21 18 19 17 12 9 12 22 30 34 39 42 42 41 38 32 27 26 27 25 20 16 18 24 27 29 34 38 39 38 36 35 33 30 28 28 27 26 26 27 28 29 29 27 26 25 24 23 23 21 21 20 19 18
27 25 23 22 22 23 25 29 30 30 28 26 26 28 29 28 29 30 32 34 38 38 33 31 31 27 26 25 24 23 22 21 23 20 18 19 22 21 14 15 24 28 26 32 41 44 44 43 40 36 33 31 30 26 20 19 23 29 32 36 41 42 39 38 38 36 34 32 31 31 29 27 27 28 28 29 29 27 27 26 25 24 23 22 21 20 19
27 24 20 20 23 24 28 33 33 30 28 28 29 30 28 28 29 29 30 32 36 35 28 25 25 23 22 22 22 22 21 19 18 18 18 19 21 22 19 20 27 29 24 26 34 40 41 42 43 41 38 36 34 31 27 21 22 29 32 35 41 43 40 39 41 40 38 34 32 33 32 28 26 28 29 30 30 29 29 28 26 25 24 23 22 21 20
27 24 19 21 22 21 27 32 29 26 28 29 30 30 29 29 28 28 30 32 32 31 27 24 23 22 22 21 21 23 24 24 22 20 21 20 18 17 21 26 30 33 33 32 32 33 36 38 41 41 39 38 36 35 34 27 23 27 31 32 34 35 35 36 39 39 39 36 31 31 30 28 26 28 31 33 32 31 30 29 27 26 24 24 23 22 21
27 24 22 22 18 17 25 26 20 19 22 22 23 26 27 28 28 29 31 33 32 30 27 25 23 23 23 24 24 23 24 28 29 25 21 19 18 21 26 29 30 32 34 34 31 30 32 35 37 37 37 37 35 36 38 36 30 27 30 31 29 29 33 37 38 38 36 31 28 28 28 27 26 27 31 34 34 32 31 30 28 26 25 24 23 22 22
27 27 25 18 14 22 31 28 21 21 22 20 22 25 27 26 27 28 28 29 30 30 30 28 27 27 26 27 28 27 27 29 30 26 24 22 22 24 26 27 29 30 30 31 31 30 31 32 32 33 34 34 34 35 36 39 39 36 35 35 30 27 29 33 36 38 35 30 26 27 28 28 27 27 30 34 35 34 32 30 28 26 25 24 23 22 21
24 25 24 18 17 26 32 29 25 25 23 22 25 27 28 28 27 27 28 28 29 30 31 31 30 29 27 25 26 28 27 27 28 26 26 25 23 24 27 28 30 30 27 27 30 31 30 29 27 28 30 30 32 34 34 37 41 42 43 43 38 31 27 27 30 34 35 33 30 29 29 30 30 30 31 33 34 34 32 30 29 27 26 25 23 22 21
26 24 25 26 25 28 32 30 27 24 22 23 24 25 27 29 26 24 26 26 26 27 27 28 29 31 32 32 32 29 24 23 25 24 23 23 23 24 26 28 29 29 29 30 31 31 31 29 27 27 28 28 29 31 33 35 38 40 43 47 46 40 32 27 28 31 34 36 36 35 34 33 34 34 33 33 34 34 32 31 29 28 26 24 22 21 20
30 26 23 21 18 21 28 28 22 19 19 20 20 22 28 32 29 25 24 24 25 25 25 27 28 30 32 31 28 25 22 21 23 22 21 21 21 23 26 28 29 30 32 33 33 33 33 32 30 30 28 28 29 29 30 32 34 37 39 43 47 46 38 29 27 30 32 36 39 41 39 37 38 39 35 32 33 34 32 30 29 27 25 22 20 19 19
33 28 21 17 16 22 29 26 19 18 19 19 17 17 24 31 30 25 23 23 24 24 22 21 22 24 25 22 17 15 15 17 18 20 21 22 23 25 26 27 30 33 34 34 35 36 36 34 32 31 31 30 30 29 29 29 31 33 35 37 41 45 44 36 30 30 29 30 34 38 41 40 39 38 34 30 30 33 31 29 28 27 25 23 22 20 19
38 33 26 23 25 29 31 26 21 19 18 18 16 13 16 22 23 21 21 23 26 27 24 22 22 21 18 16 16 15 14 15 17 20 22 24 24 25 26 28 32 35 35 35 34 35 35 34 32 30 31 32 31 30 30 30 31 31 32 33 36 41 45 42 36 31 28 27 30 34 38 39 35 33 33 30 28 31 32 30 29 28 25 24 23 21 20
38 35 32 30 30 32 31 27 24 21 20 19 17 17 18 17 17 18 20 23 24 24 23 24 27 26 21 20 22 23 21 22 24 24 24 25 24 25 29 33 35 35 33 32 32 32 32 32 31 30 30 32 32 31 30 30 31 29 29 31 35 41 44 42 38 32 27 27 31 32 33 34 32 32 33 30 28 30 32 31 29 28 26 24 23 21 18
35 35 33 29 30 34 34 30 28 27 24 21 18 19 19 19 21 22 23 24 24 23 23 25 26 27 27 27 29 30 30 31 31 29 29 30 30 31 32 32 32 32 32 30 29 30 31 30 30 29 30 31 33 33 32 31 30 29 28 28 33 41 47 44 39 33 27 24 27 30 31 33 33 31 32 32 31 31 32 31 29 28 26 24 23 21 17
29 31 28 21 22 27 28 24 23 23 22 21 22 22 21 21 23 24 24 25 28 30 29 27 25 26 28 29 31 31 30 30 29 29 29 31 32 32 31 32 33 33 33 31 30 31 32 31 30 30 30 31 32 33 33 32 31 30 29 28 29 36 47 51 44 36 29 23 22 26 32 36 35 30 29 33 35 34 34 33 30 28 27 25 23 20 18
25 24 23 21 21 21 19 18 18 17 18 21 24 27 27 26 27 28 29 30 29 29 28 27 29 30 30 31 30 30 30 30 31 31 32 32 33 33 33 35 36 36 35 33 32 32 33 34 34 32 31 33 33 33 33 32 31 31 30 29 28 30 40 52 51 41 34 30 25 25 32 38 37 32 29 32 36 36 35 35 33 31 29 26 23 21 19
29 27 26 28 28 24 21 21 20 19 20 22 25 28 31 32 31 32 32 30 29 28 27 27 29 29 29 29 31 31 32 34 34 34 34 34 37 39 39 38 37 36 37 36 34 34 34 36 38 36 33 33 34 34 33 32 32 33 31 29 29 28 32 44 51 46 40 36 32 29 30 35 35 30 29 33 38 39 38 37 37 36 33 29 25 22 21
32 32 34 36 36 33 31 31 30 28 27 27 26 27 27 27 27 28 27 26 27 28 27 27 30 32 32 33 33 32 31 32 33 34 34 36 38 40 41 40 38 37 39 38 36 36 36 37 38 37 33 33 34 34 33 32 32 33 32 30 30 30 30 36 43 46 44 40 38 36 32 32 34 33 33 35 38 40 40 39 37 36 35 32 29 27 25
32 33 35 35 34 31 31 32 32 30 28 27 26 25 25 25 26 25 26 26 26 26 26 27 30 32 32 32 32 31 32 34 36 35 34 36 37 37 38 39 37 38 41 42 41 40 39 37 37 36 34 33 33 34 34 33 33 33 32 31 31 32 32 32 36 42 45 44 41 38 33 30 34 40 42 42 41 41 41 39 35 33 32 31 30 29 27
31 32 34 34 32 30 30 30 30 30 29 30 30 29 30 31 30 29 28 27 26 27 27 27 28 30 31 31 31 30 31 33 35 33 33 35 37 37 37 36 36 38 43 46 45 42 39 37 37 36 35 32 31 33 34 34 33 33 33 33 32 33 34 33 34 39 45 48 46 41 32 29 31 35 39 41 42 43 43 41 36 33 32 33 33 31 28
33 34 34 34 34 32 31 30 30 30 29 29 28 28 28 28 28 30 30 27 25 25 25 26 28 29 31 32 33 33 32 31 31 31 32 34 36 37 38 38 39 41 42 46 47 44 40 38 37 37 36 33 32 33 34 34 34 34 34 35 34 34 35 35 35 37 40 44 49 46 37 30 30 31 31 35 40 43 44 43 40 38 37 38 37 36 33
36 35 33 32 33 33 31 28 29 30 28 27 27 29 30 28 28 31 33 32 32 32 30 29 29 31 33 34 34 34 34 34 34 36 37 37 38 38 39 41 43 42 41 46 48 45 40 39 39 38 38 35 34 34 33 33 34 35 35 35 36 36 36 37 37 37 36 38 44 48 44 37 34 33 32 33 38 42 45 46 44 44 43 42 41 40 38
38 36 34 34 34 35 35 33 32 33 31 30 31 33 34 34 34 35 35 36 38 39 38 36 34 35 38 38 36 36 37 37 38 38 37 36 36 37 39 41 42 40 40 45 47 44 41 40 40 41 40 37 35 35 34 34 35 35 35 36 36 36 37 38 38 38 37 36 38 43 47 46 42 39 37 35 37 41 45 46 46 45 46 46 45 44 42
41 41 40 39 38 39 40 40 40 39 38 37 37 38 39 40 40 37 35 37 39 38 37 36 35 35 37 37 36 36 37 37 38 39 40 39 38 39 41 43 42 40 39 43 44 43 42 42 41 41 40 38 36 36 35 35 35 36 37 38 37 37 38 39 38 38 38 38 37 39 44 47 48 46 43 40 39 40 43 45 46 45 44 43 43 43 44
42 43 43 43 42 42 42 41 40 38 36 35 36 39 39 39 38 36 35 38 40 38 36 36 35 34 34 34 34 35 36 37 39 41 42 41 39 40 43 43 41 39 38 39 39 38 39 40 39 39 40 39 37 36 35 36 37 37 38 39 39 37 37 38 39 40 40 39 38 38 40 43 45 45 43 42 40 40 40 42 43 42 41 41 41 43 44
41 41 41 41 41 40 39 37 36 35 34 34 36 37 36 35 37 36 35 35 36 36 37 36 35 34 34 34 35 36 37 38 38 39 40 39 37 37 38 36 35 35 36 36 37 37 38 38 37 38 40 40 38 36 36 37 38 38 39 39 38 37 38 38 40 41 41 41 41 40 40 41 42 42 40 39 38 38 38 39 39 40 40 41 43 44 44
41 39 38 38 39 38 37 36 36 36 34 35 36 36 34 34 36 36 35 34 34 35 35 33 32 33 34 33 33 34 35 36 36 35 36 36 34 33 32 32 33 35 34 34 35 36 38 38 37 39 41 40 38 37 36 36 38 38 38 38 37 36 37 38 40 42 43 42 41 40 39 38 39 38 37 35 35 35 36 37 39 41 42 42 43 44 43
40 38 37 38 40 40 38 36 36 36 36 36 37 37 36 36 36 36 36 36 35 35 35 32 31 35 37 34 33 34 35 35 34 33 32 32 31 30 30 31 32 33 32 33 35 35 36 37 38 40 41 40 38 35 33 34 36 35 35 35 35 34 35 36 37 40 42 42 40 38 37 36 34 32 32 33 33 34 35 36 37 38 38 39 40 40 39
38 37 37 38 38 39 38 37 36 36 36 36 36 36 37 37 36 35 37 38 36 35 35 33 33 36 37 34 33 34 34 34 33 32 31 30 29 29 29 30 31 31 31 33 35 36 36 38 39 40 40 38 34 31 30 31 31 30 30 30 31 31 32 33 34 37 40 40 37 35 35 34 31 30 30 30 30 30 30 30 29 29 30 32 35 36 37
36 36 36 37 36 36 38 39 39 39 38 36 35 35 35 35 35 35 35 36 35 33 33 33 33 33 33 33 33 33 33 32 32 31 30 29 28 28 29 30 30 30 31 33 36 37 38 38 39 38 36 32 27 26 26 26 27 27 27 27 27 27 28 30 32 34 36 36 35 35 35 33 31 29 28 27 25 25 26 26 26 28 29 30 30 31 31
37 37 37 38 38 38 38 38 39 40 38 35 34 34 33 33 33 32 31 32 32 32 33 34 33 32 31 32 33 32 30 30 29 29 29 28 28 29 30 30 30 31 33 35 37 38 39 38 38 36 30 24 22 21 21 22 23 23 25 26 26 26 26 26 28 31 32 32 33 33 32 29 27 26 25 24 23 24 26 27 29 29 29 29 28 26 24
37 40 40 38 38 39 38 38 38 38 35 33 35 36 35 35 34 33 33 33 32 31 32 32 30 30 31 33 33 31 29 28 28 27 27 28 30 31 31 30 29 32 34 35 37 39 39 36 33 28 23 19 17 16 17 18 18 19 23 26 27 29 31 29 27 30 32 31 30 29 28 27 25 23 23 23 23 24 25 26 26 26 26 27 26 23 20
32 35 34 32 32 33 34 33 33 33 32 31 33 34 33 34 35 35 35 35 33 32 31 29 27 28 30 31 30 28 26 26 27 28 28 29 31 30 28 28 31 33 35 36 36 36 32 27 23 20 17 16 15 14 14 15 17 19 24 25 24 25 29 29 26 26 26 25 26 27 27 27 25 23 22 23 24 25 24 24 25 26 25 23 22 20 18
33 35 33 31 30 31 31 32 32 32 32 33 32 31 30 30 30 31 31 32 33 32 30 28 27 26 26 25 25 23 23 26 28 27 27 27 27 26 27 30 31 31 31 29 26 23 20 18 16 15 14 14 15 13 13 14 16 20 24 24 21 21 23 24 23 21 20 21 25 27 27 26 26 25 24 24 25 24 22 21 21 21 19 17 17 17 19
35 36 35 33 32 32 33 34 34 34 34 35 34 34 32 30 28 29 30 30 29 28 26 26 25 22 21 22 23 23 24 26 26 24 24 25 26 27 28 27 24 22 20 17 15 15 14 13 14 14 14 15 15 14 14 16 16 18 21 21 19 18 20 21 22 21 21 22 24 24 22 22 23 22 20 19 18 17 15 15 15 14 13 15 16 15 16
33 33 34 35 36 36 36 35 34 34 34 35 35 34 33 30 28 29 29 27 23 21 20 20 20 20 20 22 23 22 23 24 23 23 24 25 26 25 22 17 15 14 10 7 6 9 10 12 13 12 11 11 13 18 23 24 23 24 24 24 22 21 21 21 21 22 21 21 21 21 21 21 20 19 18 17 16 14 13 13 13 12 11 11 12 11 11
36 37 40 41 42 41 40 38 37 37 36 35 34 33 31 29 27 25 23 20 18 16 17 19 20 20 20 20 19 18 19 20 21 22 23 23 21 17 13 10 9 6 2 4 3 5 9 12 12 11 13 17 21 24 26 24 22 23 24 24 22 21 20 20 20 20 20 19 19 20 20 19 19 20 20 20 20 19 16 14 14 13 12 10 9 10 10
41 40 39 37 36 34 33 32 31 32 32 31 29 28 28 26 22 18 16 15 14 16 18 19 18 17 15 15 16 17 18 18 20 21 19 14 9 6 8 8 5 4 11 12 8 7 11 15 16 18 21 23 23 24 22 20 17 18 19 19 19 18 18 19 19 20 20 21 20 20 21 21 21 21 21 21 21 20 18 14 12 12 12 10 8 9 9
31 27 25 24 23 22 21 19 18 20 22 22 21 21 19 16 13 12 12 13 13 15 15 15 14 13 12 13 14 16 17 17 16 12 7 3 1 4 6 5 7 12 16 16 16 20 23 25 25 25 24 24 24 23 21 20 19 18 17 18 18 18 18 19 19 20 20 20 20 21 22 21 20 18 18 18 18 19 18 17 13 11 10 10 8 7 9
20 18 16 16 16 15 13 11 9 9 10 11 11 10 9 9 10 11 12 12 12 11 10 10 10 9 9 11 13 14 13 10 5 4 6 7 8 11 16 20 23 24 22 21 23 27 29 29 28 27 26 27 27 26 24 23 23 22 20 20 19 18 18 18 18 19 19 19 19 18 18 17 15 13 13 13 13 13 14 14 13 12 12 12 12 11 12
15 13 10 9 7 6 4 2 1 2 3 5 6 8 9 10 9 10 10 10 9 9 9 7 7 8 9 10 8 6 5 10 14 16 17 19 23 27 30 31 32 30 28 27 27 28 30 30 29 28 27 27 26 26 25 24 23 23 23 22 22 21 20 20 19 19 20 19 18 17 16 14 12 12 12 12 11 12 11 11 12 14 16 17 17 17 17
11 9 7 6 4 4 6 6 6 6 6 6 7 8 8 9 8 8 8 8 8 7 7 6 7 8 6 7 14 19 22 24 25 26 27 28 30 32 33 32 31 29 27 26 25 26 28 29 29 28 27 25 23 22 22 22 22 22 20 19 19 20 20 19 19 21 20 18 16 17 15 11 10 12 12 11 11 13 14 13 13 14 17 18 18 18 19
10 8 8 7 7 8 10 10 9 8 8 7 7 7 7 7 7 7 6 6 6 6 5 5 5 8 17 25 29 29 28 27 27 29 31 31 31 31 32 31 29 27 25 24 23 23 24 25 25 25 24 22 21 20 20 20 19 19 17 15 15 17 17 16 17 19 19 15 14 14 14 13 13 15 15 12 11 13 15 15 12 11 13 16 16 15 16
11 11 12 12 12 12 12 12 11 10 9 8 6 5 5 4 5 6 6 6 5 4 6 12 19 25 29 30 29 28 28 27 26 26 27 29 30 30 30 28 27 26 24 23 22 22 21 20 19 19 19 18 18 17 17 17 16 15 15 14 13 13 13 13 14 15 16 15 14 14 13 13 15 17 17 14 12 14 16 17 15 12 11 12 11 11 11
10 10 11 13 13 13 12 12 11 9 9 9 8 7 7 7 6 7 9 13 17 20 24 27 28 28 27 27 27 27 26 25 24 23 23 23 25 26 25 23 22 21 19 18 17 16 16 15 14 12 12 12 12 12 12 12 11 11 11 11 10 10 10 10 10 12 14 13 13 14 15 14 14 16 15 11 10 12 16 17 17 15 12 10 9 9 10
9 9 9 11 12 11 12 14 14 14 15 17 20 22 24 25 26 27 28 30 31 31 29 28 28 27 26 25 25 24 23 22 21 19 17 17 18 20 19 17 15 15 13 12 10 9 8 8 8 7 6 6 6 6 7 7 7 7 7 7 6 6 6 6 7 9 10 10 10 12 15 16 17 17 18 16 15 14 14 14 13 12 11 11 12 14 15
9 9 11 14 16 17 18 19 20 21 22 23 25 27 29 29 30 30 30 30 29 28 27 26 25 24 22 21 19 18 18 18 18 16 14 13 13 13 12 11 9 9 8 7 6 5 5 5 5 5 4 4 4 4 4 5 5 4 5 5 5 5 5 5 6 6 8 8 9 10 13 16 17 18 19 19 18 16 14 13 13 13 13 14 17 19 18
16 16 17 18 20 22 24 24 24 23 23 23 23 25 26 26 26 26 26 26 25 25 24 23 21 19 19 18 16 14 13 12 13 13 13 11 10 10 9 8 8 7 7 6 6 6 5 5 4 4 4 4 3 3 3 3 3 3 2 3 3 3 3 4 5 6 7 9 10 10 10 11 12 13 14 14 14 13 13 13 13 14 15 17 19 20 19
24 23 22 21 21 23 23 23 24 24 23 22 22 22 22 22 23 23 23 23 22 22 21 20 19 17 16 15 14 13 12 11 11 11 12 11 10 10 10 9 8 8 8 7 7 6 6 5 5 4 4 4 3 3 2 2 2 2 1 1 2 2 2 2 3 4 5 6 7 8 8 8 9 10 11 11 11 12 13 13 13 14 17 18 19 19 20
23 22 22 22 22 22 21 21 23 23 21 20 19 19 19 20 21 21 20 19 19 19 18 16 15 14 13 13 12 12 12 12 11 10 11 10 10 9 9 9 9 8 8 7 7 6 6 5 5 4 4 4 3 2 2 2 2 2 2 3 3 3 4 4 4 5 6 6 6 7 8 9 10 10 9 10 12 14 14 13 13 14 16 18 18 18 19
18 18 19 20 20 20 20 20 21 20 20 20 20 19 18 18 19 18 17 15 14 13 13 13 13 12 13 12 12 11 11 11 11 11 10 10 9 9 9 9 8 8 7 7 6 6 5 5 4 4 4 3 2 2 1 1 1 2 3 4 4 5 5 6 6 7 8 8 8 9 10 11 12 12 11 12 14 16 16 16 15 15 15 16 17 17 18
15 15 16 16 17 18 18 19 19 18 19 19 18 17 16 16 16 15 14 13 11 11 11 11 11 12 12 12 11 11 11 11 10 10 9 9 9 8 8 8 7 7 7 7 7 7 7 6 6 6 5 5 4 3 2 0 1 2 3 3 4 5 6 7 8 8 9 10 10 11 11 13 15 15 14 14 15 17 18 18 17 17 17 18 18 18 18
Wind_Direction
265 270 272 277 282 281 278 275 270 267 266 265 265 265 264 265 266 266 266 267 266 266 269 271 273 277 281 283 285 285 283 282 283 282 281 279 279 279 275 278 278 273 270 268 267 270 272 267 261 265 275 281 286 295 292 272 254 241 235 238 241 237 233 235 240 244 241 236 235 238 242 244 246 246 244 242 241 239 237 235 234 235 237 238 239 240 243
266 267 267 271 275 274 273 271 269 269 268 267 266 265 263 263 264 265 268 270 269 267 268 272 275 279 281 280 281 282 283 281 275 270 268 262 256 262 280 289 281 274 273 273 268 268 273 272 265 258 263 273 274 275 283 277 262 250 240 238 240 238 234 234 239 242 240 235 229 231 238 242 245 246 245 242 240 238 236 233 231 231 232 234 235 237 240
269 266 266 268 269 270 270 268 265 265 267 268 265 261 260 259 260 261 264 269 269 266 267 272 275 278 279 277 276 280 282 278 269 266 273 273 264 257 261 285 285 277 277 277 270 267 269 271 268 264 262 266 269 267 269 271 263 253 245 241 241 239 235 234 235 235 237 238 232 226 228 236 244 245 243 241 239 237 235 233 230 230 229 231 232 234 239
266 267 271 270 268 270 268 264 262 263 264 263 259 257 257 256 257 259 259 261 265 268 271 275 276 277 278 274 273 276 277 275 271 267 268 274 275 268 262 269 273 268 267 273 271 270 272 272 270 269 267 266 268 264 260 262 262 255 248 243 244 244 239 234 235 233 232 234 236 231 224 225 239 246 244 241 237 235 234 233 231 230 228 229 230 232 237
264 266 269 269 271 271 262 258 261 264 262 259 258 257 256 255 256 257 257 258 264 270 274 275 274 274 274 274 276 274 268 264 265 266 267 271 277 272 258 255 262 265 267 271 273 274 277 277 275 274 271 268 267 263 257 254 257 258 254 251 255 260 255 246 243 241 234 230 235 240 232 224 233 245 245 240 236 234 234 232 230 230 229 228 230 232 235
264 267 268 268 267 258 253 255 260 263 261 261 262 260 258 257 256 257 260 262 264 267 272 274 275 274 275 278 276 270 262 259 262 268 273 271 266 262 258 257 262 268 270 275 279 276 274 278 282 281 276 270 265 262 257 253 251 255 260 263 268 272 266 257 251 249 244 236 234 241 241 234 234 245 246 240 236 235 233 231 230 228 227 227 229 230 231
264 267 268 265 251 249 256 260 262 261 263 267 269 265 261 260 260 262 263 261 261 265 271 275 277 277 276 273 267 264 263 263 264 266 269 267 263 264 267 269 272 274 276 280 285 284 279 280 285 286 283 275 265 260 256 253 250 252 258 264 269 271 268 263 257 253 253 251 242 238 241 237 234 240 244 240 236 234 233 232 230 228 226 226 227 227 227
259 261 259 254 255 262 264 265 264 263 264 267 268 266 261 258 260 262 261 260 262 266 268 269 270 268 265 261 259 260 265 269 268 266 267 268 267 266 268 270 273 279 285 289 291 291 289 287 288 289 289 282 270 261 257 254 252 251 254 258 263 267 272 272 263 253 250 251 245 235 235 236 233 234 237 237 235 234 234 232 228 225 223 221 221 221 222
248 251 253 256 264 269 267 264 264 264 264 262 262 264 261 255 253 256 258 260 263 265 265 265 266 266 263 261 264 268 271 270 266 262 263 266 266 265 266 269 274 282 289 292 291 292 294 295 294 292 291 288 278 267 259 256 254 252 252 255 258 261 267 272 267 253 242 240 239 233 228 230 230 228 228 232 235 234 232 230 227 224 220 217 215 216 219
243 246 254 260 265 265 262 263 266 267 268 266 264 269 265 255 251 255 258 260 264 267 269 267 267 270 267 262 266 271 267 260 259 258 256 256 258 262 266 272 278 282 285 288 291 294 296 297 296 295 293 290 284 276 265 258 257 255 252 252 256 258 259 262 266 258 241 230 231 233 231 229 228 225 221 224 232 235 232 228 225 221 217 213 211 213 219
242 245 251 253 252 257 261 267 272 270 273 277 273 271 267 260 259 261 258 256 257 258 260 260 258 258 258 256 260 268 263 254 254 257 257 254 257 264 271 276 278 279 282 287 291 294 294 294 296 295 294 291 287 282 273 264 261 262 257 252 253 255 255 253 257 264 257 237 230 236 241 241 238 232 223 218 225 233 231 225 221 216 213 213 212 211 213
242 246 249 248 250 258 263 270 272 266 273 284 281 269 268 269 268 259 246 243 248 251 254 257 250 244 249 254 250 251 266 271 264 262 266 266 266 268 273 276 276 278 283 287 289 291 292 293 295 293 291 289 287 284 280 272 267 267 266 258 250 250 252 251 250 261 269 257 242 240 243 247 249 245 234 220 218 227 228 221 217 215 213 215 214 212 210
241 243 247 249 252 257 260 264 267 265 268 273 264 254 259 265 265 261 254 252 255 257 259 258 251 246 252 260 252 247 258 268 265 261 264 269 273 276 276 276 277 280 283 286 286 288 290 293 295 293 288 286 285 284 282 278 274 273 273 267 254 246 248 250 249 255 267 265 251 241 238 241 247 251 244 227 213 219 223 218 215 216 216 218 219 219 220
242 244 249 254 256 259 261 264 268 266 262 259 253 254 263 266 265 267 268 267 269 271 268 261 256 255 261 268 270 266 263 264 264 265 266 268 273 278 279 281 283 285 285 284 285 286 288 291 295 295 289 284 283 283 281 279 278 275 273 272 261 249 247 249 248 249 259 267 256 241 236 238 238 240 243 233 215 209 213 215 215 217 219 223 227 229 230
244 247 249 253 259 263 264 265 265 260 254 253 258 265 273 276 273 271 273 276 280 282 279 267 259 262 269 274 279 277 271 269 272 275 276 277 277 280 284 287 288 288 287 285 283 284 287 290 293 294 292 287 283 281 279 279 279 276 271 270 267 256 249 247 246 246 250 259 254 240 235 238 234 229 234 237 225 212 208 211 217 221 223 225 229 231 235
248 247 248 249 258 265 265 266 271 270 263 263 267 271 275 279 279 278 280 282 282 284 284 277 273 276 279 278 278 277 274 277 281 282 282 284 284 284 287 288 288 287 286 286 284 283 286 290 292 292 293 290 285 280 279 278 277 275 270 265 266 263 253 246 245 247 250 251 250 240 234 234 233 227 228 236 233 222 212 212 216 221 224 226 228 231 237
257 259 261 259 260 265 269 273 277 277 276 278 281 283 282 282 282 283 284 284 282 280 279 277 276 279 281 281 281 279 276 277 280 279 280 282 284 285 288 289 289 286 283 284 286 287 288 291 292 291 290 290 287 282 278 276 275 273 269 262 260 262 258 249 245 246 249 251 250 248 238 229 227 228 231 234 232 227 223 221 219 219 221 222 226 235 243
266 266 266 263 264 268 273 277 277 275 278 282 283 281 281 283 285 286 284 283 284 283 280 276 276 280 283 284 283 281 279 277 276 277 279 280 282 284 286 287 288 285 282 283 287 289 290 292 292 289 287 287 286 283 278 274 272 271 268 262 256 254 257 256 248 244 245 248 251 254 248 231 224 228 233 235 234 231 230 231 229 226 223 220 220 227 237
271 270 270 269 271 275 279 281 280 277 276 279 279 277 276 276 277 278 278 279 279 279 279 278 279 283 287 289 288 287 284 279 277 279 282 282 281 282 284 285 285 284 283 283 285 288 291 292 291 287 284 283 283 282 277 272 270 269 265 259 254 249 250 255 253 246 243 243 247 253 256 244 231 226 226 231 237 237 235 236 236 237 237 234 229 229 231
271 272 271 271 273 274 272 274 278 279 277 276 277 278 277 277 277 276 277 278 277 276 276 274 274 277 281 283 282 280 279 281 285 287 284 280 279 279 280 282 283 284 285 284 285 287 289 289 288 285 283 282 282 280 276 271 268 268 263 256 253 249 245 248 252 247 242 241 243 248 253 254 246 235 229 231 237 240 241 242 242 243 247 247 246 246 244
272 270 269 271 275 275 272 272 276 278 278 279 278 273 269 272 275 275 274 275 275 273 272 269 268 269 270 270 269 266 265 269 273 272 270 272 276 279 279 280 281 283 284 285 285 286 286 285 285 284 282 283 284 282 277 272 267 265 261 255 251 247 243 243 246 246 243 242 242 242 244 249 250 247 243 240 239 240 243 244 243 244 247 249 251 253 255
269 269 270 273 276 278 278 279 279 278 278 281 280 273 265 259 258 261 268 273 272 269 267 265 265 263 260 262 267 269 268 267 265 264 267 271 276 278 278 278 279 281 283 284 284 286 285 283 282 282 283 285 287 285 279 273 267 263 259 254 250 246 243 240 241 244 246 245 242 240 240 242 245 246 245 242 240 240 242 244 245 247 248 250 253 255 258
267 268 269 270 275 278 280 279 278 277 277 276 274 272 270 266 265 268 274 277 277 276 275 273 270 267 265 265 268 270 270 270 270 270 271 272 274 276 277 277 279 281 282 281 282 283 283 282 281 281 282 285 287 286 281 274 266 260 255 252 248 245 242 240 239 241 244 246 244 241 239 239 242 245 245 242 239 239 241 244 247 248 250 251 253 255 259
269 270 269 270 274 278 278 276 275 276 277 275 271 270 270 270 270 271 273 275 278 279 278 274 271 271 271 271 272 272 271 271 270 270 270 270 272 273 275 278 281 282 280 279 281 281 281 281 281 279 281 284 286 285 280 274 266 258 251 248 246 244 241 239 237 237 241 244 245 244 240 237 239 242 244 243 241 239 240 242 244 246 250 253 254 256 257
270 272 272 273 275 277 278 280 281 280 281 281 279 277 278 278 277 274 272 273 274 273 273 272 272 272 271 271 270 269 269 270 272 274 277 277 276 274 275 278 281 281 279 278 280 279 278 279 279 278 281 284 286 284 279 272 265 256 248 245 245 245 244 241 236 233 235 238 240 242 241 239 238 240 242 242 243 243 242 243 243 245 249 254 255 255 252
270 272 275 277 278 280 281 283 283 282 281 280 279 278 280 282 282 283 282 280 277 275 274 274 272 271 270 270 270 270 271 272 273 276 279 281 281 279 279 278 277 276 276 275 275 275 276 277 277 279 282 286 286 284 278 271 263 254 246 243 243 244 245 244 240 235 233 234 234 236 238 238 239 240 241 241 242 243 244 245 245 246 248 250 251 249 247
276 277 279 279 279 277 275 275 276 276 274 273 273 274 275 274 274 277 278 276 275 275 277 279 278 275 274 273 272 272 273 274 275 276 278 281 281 279 278 277 273 271 271 272 272 272 274 275 278 281 285 287 286 284 277 269 261 253 246 242 243 242 241 241 240 238 236 234 233 234 237 238 237 236 236 237 238 239 240 240 240 241 242 243 244 245 247
281 280 279 277 276 276 276 276 275 273 272 272 273 273 274 274 273 273 273 271 271 271 273 276 277 276 276 276 274 273 274 278 280 280 279 279 279 277 276 274 271 268 268 269 270 271 274 277 281 284 285 286 285 281 274 265 258 252 246 243 243 242 241 241 241 239 237 236 235 235 236 237 234 230 229 230 231 231 232 233 234 236 238 239 241 244 245
280 279 278 276 277 280 282 281 279 277 275 275 274 273 273 273 272 270 269 269 268 269 270 269 269 270 274 276 274 273 276 280 282 281 279 277 275 273 271 268 266 266 268 270 272 274 277 280 283 284 285 285 282 275 266 258 253 249 244 242 242 241 241 241 240 238 236 234 233 231 230 230 230 228 226 224 223 224 226 228 230 233 236 239 241 242 241
282 282 282 281 281 282 282 282 281 280 278 277 276 275 273 272 270 268 268 269 268 269 271 269 267 269 272 272 270 271 272 275 278 279 277 274 271 269 268 266 266 268 269 271 274 277 278 280 283 285 286 282 274 264 257 251 247 244 242 240 241 241 241 240 238 236 232 228 226 226 226 222 218 214 213 215 219 221 224 226 227 231 236 237 236 234 230
284 282 279 278 276 274 275 276 277 278 278 277 277 275 273 272 271 270 269 269 269 268 268 268 267 265 264 266 271 273 271 270 272 272 271 271 271 270 268 267 269 271 272 273 275 277 279 282 283 284 281 272 261 257 252 246 242 241 241 241 239 236 236 237 234 227 219 214 214 218 217 211 205 204 208 217 224 228 232 234 232 231 232 230 224 219 216
279 275 273 274 273 272 272 273 273 274 274 272 272 272 271 270 270 268 266 267 267 267 265 265 266 266 265 267 270 271 269 269 268 267 267 269 270 269 268 269 272 275 276 276 277 278 280 281 279 275 269 260 254 255 253 245 237 227 224 227 228 227 229 229 219 208 203 203 206 208 206 206 210 214 214 217 220 221 222 221 216 211 210 210 208 208 207
280 279 277 278 280 279 278 276 275 275 273 272 272 272 271 270 269 269 267 266 265 264 262 260 261 266 270 270 268 267 267 269 267 265 265 268 268 268 270 274 277 278 279 281 280 277 275 273 266 259 255 251 245 239 233 231 227 213 202 193 188 198 214 217 208 200 198 197 195 195 193 195 200 198 191 192 198 201 198 194 191 190 192 192 191 191 191
281 281 281 283 283 281 280 280 278 275 272 271 269 268 268 271 273 273 272 269 264 261 260 258 259 264 269 267 263 262 263 264 263 264 267 270 271 272 274 278 280 281 281 281 277 269 263 258 248 242 243 245 243 232 215 207 207 209 207 197 182 181 193 197 197 201 201 191 185 186 186 187 190 186 180 181 187 188 185 183 184 185 183 181 183 189 193
282 278 282 288 287 282 280 281 281 278 275 273 271 268 268 272 275 276 278 275 268 261 258 257 257 261 264 262 260 262 263 263 265 269 274 276 277 278 279 281 281 279 279 277 266 253 245 238 229 227 237 247 245 226 194 172 165 174 188 192 184 180 180 178 180 188 189 184 182 184 182 182 185 183 177 175 178 179 180 181 181 180 179 181 186 192 196
289 283 286 291 290 285 281 279 278 277 276 276 277 274 269 270 276 280 279 274 266 259 257 257 257 258 260 259 259 262 266 267 269 274 278 280 281 281 280 276 271 268 270 271 254 230 213 207 213 221 227 223 205 182 166 155 147 147 152 153 150 152 158 160 162 166 168 170 173 173 170 170 173 172 168 166 165 164 162 159 155 155 163 173 177 178 178
295 291 290 289 287 284 280 277 274 273 270 270 273 273 269 271 279 281 272 260 253 251 254 255 253 251 253 255 261 268 271 271 272 277 280 283 284 277 263 254 262 264 189 145 186 210 198 196 196 180 159 156 158 157 155 150 142 138 140 142 144 149 154 157 160 161 163 166 170 171 170 169 165 160 156 152 147 143 141 138 136 135 136 143 152 154 155
295 293 291 289 287 285 282 279 274 269 265 264 267 269 271 274 277 267 247 238 242 247 248 248 249 252 258 263 270 275 276 275 278 280 280 281 280 250 228 239 256 169 150 150 148 147 156 159 151 138 134 139 141 142 143 142 134 126 127 133 140 147 152 156 157 158 158 159 159 156 153 149 145 145 146 145 142 141 140 140 140 133 126 124 130 139 144
297 296 294 294 293 288 287 285 277 267 262 260 262 266 267 263 251 232 224 230 239 242 242 244 250 261 269 271 272 275 277 277 276 273 265 258 173 163 171 155 125 130 137 128 109 106 117 125 124 118 117 121 122 120 120 119 117 116 120 124 127 130 135 140 141 141 141 141 139 137 136 136 137 142 146 146 145 146 149 154 156 146 126 118 123 136 147
308 307 305 305 300 291 286 286 278 265 256 250 246 244 236 219 210 214 223 230 233 238 245 253 259 265 269 270 272 274 273 265 239 151 117 102 108 128 131 120 113 112 112 107 105 108 111 113 113 113 111 111 110 108 105 104 103 103 104 105 106 109 113 117 119 119 118 118 118 119 121 123 125 130 135 139 143 148 152 154 153 146 141 147 159 169 175
327 326 322 322 320 311 301 293 240 199 193 189 182 179 182 190 200 211 219 224 233 246 253 254 258 269 270 264 254 231 165 128 114 109 106 103 104 110 113 110 106 104 104 107 111 114 112 110 110 110 108 106 104 103 103 102 100 97 95 93 93 92 91 91 94 97 98 98 99 100 100 101 100 100 103 109 112 116 127 142 149 151 159 172 180 185 192
353 355 356 3 31 75 91 95 104 120 137 149 156 166 180 191 197 201 209 218 230 241 248 254 264 265 239 167 134 122 116 111 106 104 106 105 103 103 104 103 101 101 103 106 109 111 112 112 111 107 103 101 100 99 99 99 99 100 101 102 101 100 100 99 97 97 97 101 107 112 115 118 112 107 111 121 124 126 140 163 175 174 179 189 196 197 201
24 26 27 34 63 92 97 94 98 112 126 140 152 160 166 173 180 186 195 213 234 252 261 251 213 156 135 127 120 113 108 105 102 100 100 101 98 95 95 94 93 93 93 94 96 99 104 107 106 102 97 94 94 94 96 97 98 101 106 112 112 112 115 120 118 115 117 127 138 140 141 142 138 136 148 167 175 168 174 189 197 191 189 198 206 209 211
53 50 51 58 72 85 87 86 92 100 103 108 123 139 148 171 207 226 229 229 225 193 144 134 129 124 120 117 113 107 103 100 98 95 95 96 95 93 90 89 88 86 84 82 83 85 88 91 93 91 87 85 86 89 93 96 99 101 107 115 120 123 125 130 133 135 140 149 156 159 161 159 155 160 172 184 187 190 202 214 223 223 216 214 219 225 230
53 49 49 56 65 73 74 76 79 79 77 84 99 113 116 119 127 136 134 130 123 117 113 113 114 114 112 109 105 102 99 96 93 90 88 89 90 90 89 88 88 86 84 82 81 82 83 85 85 84 82 83 86 90 95 101 105 107 110 117 127 135 138 139 142 151 159 164 168 177 187 189 183 186 195 201 199 204 214 220 224 228 234 243 253 255 253
49 51 50 54 63 73 77 82 88 92 94 98 102 104 104 103 102 102 104 104 103 101 101 101 103 105 106 104 101 99 98 96 93 88 81 78 80 83 85 86 87 87 90 92 90 90 92 97 101 105 107 109 113 119 123 127 132 138 143 149 156 162 166 165 160 162 171 178 181 186 195 200 203 206 212 219 225 231 235 237 241 249 261 269 268 263 262
69 75 71 71 80 91 97 100 104 104 103 101 100 98 97 96 95 95 97 98 98 98 98 97 96 96 95 94 94 95 95 96 97 95 88 82 80 82 85 88 91 95 102 108 112 116 124 131 137 143 148 152 157 160 154 154 162 172 179 188 198 202 200 201 201 197 199 206 210 206 204 206 212 217 221 225 232 241 251 258 265 271 273 269 265 265 266
97 100 96 94 98 102 105 109 110 105 100 96 93 91 90 91 91 93 95 97 97 98 100 100 100 100 99 98 98 96 93 93 97 101 101 99 98 98 101 104 105 106 110 114 116 121 125 128 133 140 142 146 154 156 144 146 163 176 181 194 215 228 222 208 206 208 214 222 231 236 233 228 229 235 239 242 246 251 256 260 264 266 265 264 267 272 275
93 98 102 107 108 104 104 105 102 96 91 89 88 88 89 91 92 93 94 96 98 98 99 100 103 105 105 104 104 101 97 97 100 102 103 104 104 102 103 103 101 100 101 101 101 103 105 107 109 113 115 116 125 132 128 130 143 160 179 201 221 245 255 247 230 226 231 235 241 249 254 251 246 245 251 258 260 259 257 257 259 262 265 267 269 273 276
86 90 93 99 102 102 104 103 97 93 91 91 91 92 94 96 96 96 96 96 98 100 100 101 104 105 105 105 105 102 99 100 100 98 96 95 92 88 86 85 82 80 78 76 76 77 78 79 80 83 87 94 101 110 123 142 159 176 201 222 233 240 250 256 254 250 250 252 252 254 259 262 261 260 262 266 267 266 265 263 262 264 268 272 276 277 278
83 84 85 88 91 94 97 96 93 93 96 98 98 99 99 97 96 96 95 94 97 101 102 104 108 108 107 105 104 100 97 96 93 88 84 80 76 73 70 68 66 64 63 61 61 60 59 60 59 61 67 78 87 98 121 166 197 202 212 227 237 240 242 247 250 250 250 252 252 253 258 263 266 267 267 268 271 273 275 276 275 273 273 275 278 279 281
82 81 82 85 87 89 93 95 94 96 99 100 100 102 101 97 94 94 94 95 99 104 103 102 104 105 105 102 99 96 94 90 85 82 79 74 70 68 65 63 63 63 61 58 58 56 54 53 51 49 49 52 52 52 55 49 269 263 253 250 252 254 255 255 254 254 255 257 258 259 262 265 267 268 268 269 272 275 277 279 279 278 277 277 279 280 281